Location: Los Ranchitos
(37.9930°N, 122.5425°W)
Time: 03:25:21
(UTC+00:00)

SJ-6B - Pass Details

Date: 21 September 2020
Orbit: 511 x 580 km, 97.6° (Epoch: 27 October)

Event Time Altitude Azimuth Distance (km) Brightness Sun altitude
Exits shadow 03:08:55 16° 71° (ENE) 1,384 4.3 -12.5°
Maximum altitude 03:09:05 16° 68° (ENE) 1,382 4.4 -12.6°
Drops below altitude 10° 03:11:28 10° 28° (NNE) 1,745 5.2 -13.0°
Sets 03:14:10 0° 7° (N) 2,645 6.4 -13.5°
